Theta_e
294 295 296 296 294 295 294 294 294 295 296 298 304 307 307 306 304 303 305 309 314 315 315 316 316 316 317 316 316 315 316 315 314 314 316 313 311 312 313 314 315 316 317 318 319 319 321 322 322 321 321 319 318 317 318 318 318 318 318 317 317 319
295 295 295 293 294 294 294 293 293 295 297 297 299 299 299 300 302 302 306 307 309 308 306 308 311 312 314 312 312 312 313 313 312 312 307 311 307 310 312 312 314 314 314 314 317 318 319 320 320 320 321 320 319 318 311 310 312 312 312 312 307 309
294 292 291 293 291 292 292 293 295 295 294 295 295 298 296 297 299 299 302 299 301 302 305 305 305 305 305 306 305 306 305 305 303 306 307 303 306 308 309 311 313 315 315 316 315 317 317 317 318 317 316 316 315 314 313 311 308 310 311 310 308 305
291 291 290 289 292 293 294 293 293 294 295 294 295 295 295 296 296 298 298 297 300 302 302 303 302 303 303 305 305 306 305 304 303 303 300 302 302 300 308 310 312 310 313 314 315 315 315 315 318 317 315 313 311 309 310 310 309 309 308 302 304 303
291 291 292 291 291 292 290 290 292 293 293 294 293 295 295 294 296 295 295 297 298 299 298 297 298 298 299 301 300 299 299 298 297 297 299 299 298 298 301 303 304 308 308 308 308 310 309 310 307 306 307 308 309 310 309 307 308 308 308 306 306 306
289 291 292 292 291 290 291 292 291 292 291 293 292 294 293 291 292 293 295 295 295 294 294 294 290 295 295 298 296 298 297 298 298 297 300 300 300 303 301 302 304 303 304 304 304 303 304 304 303 304 304 308 308 309 310 308 307 307 307 307 307 305
290 292 292 292 291 289 290 292 293 292 293 291 293 292 292 292 291 294 293 291 291 290 291 288 288 291 292 295 294 296 294 295 295 295 298 298 301 301 300 300 299 302 303 304 304 305 303 303 304 304 302 302 302 303 305 306 305 304 305 305 305 300
289 289 290 292 291 292 292 292 292 292 291 292 290 292 289 290 289 289 288 289 293 291 290 289 289 291 292 293 293 293 292 292 294 295 294 297 302 298 297 298 296 299 300 300 300 300 301 300 300 301 301 301 300 300 300 300 301 301 302 301 300 300
291 291 292 293 292 290 292 292 293 291 291 292 291 291 293 292 291 289 292 288 292 289 290 290 292 292 292 292 293 293 295 296 294 296 298 293 296 297 296 294 295 293 296 296 296 297 298 299 298 298 298 298 297 298 298 297 296 296 295 295 296 295
290 290 291 290 292 291 291 291 291 293 293 294 293 292 293 295 294 293 293 290 290 293 291 294 293 294 294 294 295 295 295 295 295 294 292 292 297 295 295 296 296 293 293 294 295 295 295 295 295 295 295 295 296 295 295 294 295 294 293 293 293 293
292 292 291 291 289 290 290 290 290 289 290 290 293 293 294 296 298 297 296 293 294 294 294 294 295 295 296 295 296 294 294 293 292 290 290 292 291 291 291 291 292 292 293 292 292 293 293 294 295 295 295 295 295 295 295 295 293 292 292 292 291 291
292 292 292 290 290 291 291 291 291 292 293 293 293 294 294 296 298 298 298 297 297 295 295 294 294 295 293 293 293 292 290 289 288 289 289 290 289 289 289 290 290 291 292 292 291 291 292 292 294 292 292 294 294 294 294 293 291 291 291 291 291 290
291 290 291 292 291 291 293 294 293 292 292 293 293 295 296 297 298 298 298 298 297 295 295 295 294 292 292 293 291 289 289 289 288 288 288 288 288 289 289 289 290 289 289 290 290 290 290 290 292 291 294 294 295 294 293 293 291 291 290 290 291 291
290 291 292 293 293 293 293 293 293 291 294 294 293 294 295 297 297 298 297 297 296 296 296 295 293 292 291 290 290 289 288 288 288 288 288 288 288 288 287 288 288 288 289 289 289 289 289 289 289 293 293 294 294 293 293 291 291 290 290 289 290 289
292 293 293 294 295 294 294 295 293 294 295 295 294 293 295 296 297 297 297 296 296 296 295 293 292 292 290 290 289 288 288 288 288 288 288 288 287 287 288 288 288 288 288 289 289 289 288 288 290 292 293 293 294 294 292 289 290 290 288 288 288 288
292 293 294 295 296 296 296 294 296 297 295 293 291 293 294 295 295 296 295 295 296 295 294 292 291 291 290 289 288 288 288 288 289 288 287 287 288 288 288 288 288 288 288 289 289 289 289 289 289 292 292 292 293 293 292 289 289 289 288 288 287 286
292 293 293 293 294 292 291 292 293 290 290 291 292 292 293 294 295 295 294 294 294 293 293 292 291 290 289 288 288 288 288 288 288 287 287 288 288 288 288 288 287 288 288 288 287 288 288 288 289 291 292 292 293 293 292 287 287 286 286 286 286 286
291 293 294 295 293 291 293 294 292 291 290 289 291 290 291 293 294 294 293 293 293 293 292 292 291 290 289 288 288 288 288 287 287 287 287 287 287 286 287 287 287 287 287 287 287 287 287 286 289 290 291 292 292 293 288 286 286 285 285 285 285 285
293 293 294 293 293 293 293 293 291 292 289 289 289 289 291 292 293 292 292 292 293 292 292 292 291 290 289 288 288 288 288 287 287 287 287 287 287 286 287 286 286 286 286 286 286 286 286 286 287 289 290 291 292 291 286 286 286 285 284 284 284 284
292 291 292 291 292 294 294 291 291 291 290 289 288 289 290 290 292 292 292 292 292 292 292 292 291 289 289 288 288 288 288 288 288 287 287 287 287 286 286 286 286 286 286 286 286 286 286 286 286 288 290 290 291 288 285 284 283 281 280 280 281 281
291 292 290 289 291 293 290 290 290 291 291 290 289 289 290 290 291 291 291 292 292 292 292 291 291 290 289 288 288 288 287 287 287 287 287 287 287 286 286 286 286 285 285 285 285 285 286 286 285 287 289 290 291 289 286 285 284 283 282 279 281 282
288 288 289 291 293 293 290 289 291 291 292 290 289 289 290 291 291 291 291 292 292 292 291 291 290 289 289 288 288 288 288 287 287 286 286 286 287 286 286 286 286 285 285 285 285 285 285 285 285 285 289 290 290 290 285 284 282 281 280 279 281 279
291 292 292 293 294 291 289 290 291 291 291 289 289 289 292 291 290 290 291 291 291 291 291 290 290 289 289 289 288 288 287 287 287 286 286 286 286 286 285 285 285 285 285 285 285 285 285 285 285 285 288 289 290 290 287 284 284 283 281 280 279 280
289 289 289 289 289 289 289 290 291 291 289 288 289 292 291 288 289 290 291 291 291 291 290 289 289 289 289 288 287 287 287 287 286 286 286 286 286 285 285 285 285 285 285 285 285 285 285 285 285 284 286 288 289 290 290 286 285 285 284 282 280 278
290 290 291 290 287 288 288 289 290 290 289 289 291 290 287 288 288 290 290 290 290 289 289 288 288 288 288 288 287 287 287 286 286 286 286 286 285 285 285 284 284 284 284 284 284 284 284 284 285 285 284 286 288 289 290 289 286 287 282 280 278 277
291 291 290 286 286 287 288 289 290 289 289 290 288 286 286 287 288 289 289 288 289 288 288 288 288 288 287 287 287 287 286 286 286 286 286 286 286 285 284 284 284 284 283 283 283 283 283 284 284 283 284 283 286 288 289 289 290 288 279 277 278 276
290 291 289 285 285 287 288 289 290 290 289 288 285 287 286 287 288 288 288 288 288 288 288 287 287 287 287 287 287 287 286 286 286 285 285 285 285 285 284 283 283 283 283 283 283 282 282 282 280 277 279 284 284 286 287 288 289 289 288 278 275 276
289 289 289 286 285 286 287 288 289 289 290 286 286 286 287 287 288 288 288 288 288 287 287 287 287 287 287 287 287 287 287 286 286 286 285 285 285 285 284 283 283 283 283 282 281 278 275 274 273 273 273 278 280 282 284 286 287 286 286 283 279 281
288 288 288 288 283 283 284 286 286 288 284 285 286 286 287 287 288 288 287 287 287 287 287 287 287 287 286 286 286 286 286 286 286 285 285 285 284 284 284 283 283 282 282 280 275 272 272 271 271 272 273 271 271 274 275 275 276 282 283 279 276 279
288 288 287 287 283 283 284 284 285 283 284 284 286 287 287 287 288 288 287 287 287 287 287 287 284 285 286 286 286 286 285 286 286 285 285 285 284 284 283 283 282 281 279 276 272 269 271 270 269 271 271 273 272 273 271 271 274 272 272 274 275 274
287 287 286 287 283 282 282 281 280 280 283 284 285 287 287 287 286 287 287 287 287 287 286 286 286 286 286 286 285 285 285 285 285 285 283 282 282 284 283 282 280 277 275 273 272 271 271 270 270 273 278 276 280 276 273 272 274 273 271 277 282 275
286 285 284 283 279 280 280 279 278 279 281 283 285 286 287 286 286 285 285 285 285 285 284 284 285 285 285 285 284 282 280 279 283 283 282 277 279 282 282 281 273 273 272 272 271 273 272 271 271 281 285 285 285 285 284 283 282 282 278 280 284 279
280 280 281 279 276 277 277 277 276 278 279 281 283 285 286 285 285 284 283 283 283 282 283 283 283 283 284 283 282 281 279 277 276 283 282 281 280 282 283 283 283 281 279 274 271 274 281 282 284 284 283 284 284 285 286 286 286 286 286 286 278 272
281 282 282 278 276 276 276 276 276 277 277 279 281 283 284 284 284 283 282 282 281 280 281 282 282 281 281 279 278 278 277 276 276 275 282 283 283 283 283 283 284 283 283 283 279 273 271 279 282 283 283 283 284 283 284 284 285 285 285 286 285 274
281 279 277 276 274 274 275 276 275 273 275 277 279 281 282 282 283 282 281 281 280 280 279 279 279 279 278 277 276 275 276 276 276 276 275 277 283 283 283 283 284 284 284 284 284 284 282 283 283 283 283 283 283 283 283 283 284 284 284 284 278 273
276 276 274 272 272 274 275 276 272 271 272 274 277 279 280 280 280 280 280 279 279 278 278 277 277 277 276 276 276 275 275 275 276 276 276 275 274 274 278 280 281 281 282 282 283 283 283 283 283 283 283 283 283 283 283 283 280 284 284 282 274 273
277 276 275 273 273 273 273 273 268 268 269 271 276 277 277 277 277 277 276 276 276 277 277 276 276 276 275 275 275 275 275 274 273 274 275 275 274 273 272 269 271 277 280 277 279 281 282 282 282 282 282 282 282 283 283 281 269 270 269 269 269 271
276 275 273 273 272 271 271 270 266 267 267 270 275 276 276 276 276 276 276 276 276 275 275 275 275 275 275 275 274 274 274 273 273 273 272 272 272 272 271 268 268 268 274 277 277 279 280 281 281 281 281 281 281 281 281 269 267 267 268 269 268 269
Wind_Speed
8 8 9 7 4 3 4 3 3 4 4 5 6 9 8 6 4 4 5 6 7 8 10 9 8 7 7 7 6 6 7 8 7 7 7 6 5 5 6 6 6 7 7 8 8 8 9 9 9 9 8 7 7 6 7 7 7 8 10 9 10 12
8 8 6 5 4 3 3 4 4 6 6 6 6 5 5 5 6 7 8 9 8 6 4 5 6 6 6 5 6 6 7 7 6 6 5 7 5 5 6 6 7 7 7 7 8 8 8 9 9 9 10 8 7 6 5 5 6 7 7 7 5 4
7 4 1 0 1 1 2 4 5 5 4 5 4 6 5 6 7 6 7 4 5 5 6 6 5 4 3 4 4 5 5 4 4 5 5 3 5 5 5 6 7 7 7 8 8 8 8 8 8 7 6 8 8 7 7 6 5 7 8 8 8 6
4 0 1 1 2 2 3 2 1 2 3 2 2 2 4 5 5 5 4 4 4 5 4 4 3 4 4 5 3 4 3 2 3 2 3 4 3 3 6 6 6 5 6 6 7 7 8 7 8 9 9 7 6 6 5 5 5 6 6 4 5 4
2 2 3 4 5 4 3 3 3 4 3 2 3 4 5 4 4 3 4 4 4 4 4 4 4 4 4 5 4 4 3 2 2 2 2 2 2 2 3 4 4 5 5 4 5 5 5 5 4 3 3 4 5 6 6 6 6 7 8 7 8 9
1 2 4 4 3 3 4 4 4 3 3 4 4 5 5 3 2 3 4 4 4 4 5 5 3 4 3 4 3 3 2 2 1 1 2 2 1 1 1 1 2 2 2 3 3 4 4 4 4 4 4 5 4 5 7 6 6 7 8 8 8 7
4 4 4 4 4 4 4 4 4 4 5 4 5 5 4 3 3 4 4 5 5 3 4 4 3 3 3 3 3 3 3 3 2 2 1 1 1 1 1 0 1 0 0 2 3 3 3 3 3 3 3 3 3 3 4 4 4 5 5 6 7 6
3 3 5 4 5 6 5 5 5 5 4 6 5 5 4 4 3 4 5 4 6 4 4 3 3 3 3 3 3 4 3 2 2 2 1 0 0 0 1 1 1 0 1 1 3 3 3 3 3 2 3 3 3 3 4 4 4 5 5 5 4 4
7 5 5 7 6 6 6 6 6 5 5 5 5 5 5 5 5 4 5 4 5 4 4 4 4 4 4 4 3 2 1 1 0 0 0 1 1 1 0 0 0 0 1 1 1 2 2 2 1 2 3 3 3 4 4 4 4 5 4 4 4 4
5 6 8 7 8 6 5 5 6 6 7 8 6 6 5 6 6 5 5 5 5 5 5 5 4 4 3 2 1 1 1 0 0 1 1 1 0 0 0 1 2 1 0 0 1 1 1 1 1 3 3 3 3 3 4 4 4 4 4 4 4 4
7 7 7 8 6 7 7 6 6 5 5 5 5 6 8 6 7 6 6 5 6 6 5 4 3 2 1 0 1 1 3 2 1 2 2 2 2 1 2 2 2 2 1 0 0 0 0 1 2 1 1 2 3 2 3 3 3 4 4 4 4 3
6 7 7 7 8 8 7 7 8 9 9 9 7 8 7 7 8 8 7 8 7 5 4 4 4 3 4 4 4 4 3 3 3 2 2 1 1 1 1 1 1 1 1 1 1 1 1 1 2 3 3 3 3 3 3 3 4 4 4 4 5 4
6 6 7 9 9 10 10 10 9 7 7 7 8 9 8 7 8 8 8 9 6 6 5 5 5 4 5 5 4 4 4 3 3 3 3 2 2 1 1 1 1 1 0 1 1 0 0 0 1 2 2 4 5 4 4 5 5 4 4 4 5 6
8 9 11 11 11 11 10 10 9 7 11 9 10 9 7 8 8 9 9 7 6 7 7 6 6 5 5 4 4 5 4 4 4 4 3 3 3 3 2 2 2 1 1 1 0 1 1 1 3 3 4 5 6 7 5 4 4 4 4 4 5 5
11 12 12 10 12 12 13 11 9 11 12 11 10 7 9 10 9 9 8 7 8 8 7 6 7 6 5 5 5 4 5 4 4 4 4 5 3 3 4 3 2 2 2 2 2 1 1 1 2 3 4 5 6 7 6 3 4 5 4 4 5 5
8 9 12 14 14 14 11 11 14 14 9 7 6 10 10 10 9 8 8 7 8 7 7 7 7 6 6 5 5 5 5 5 6 4 3 3 4 4 4 3 3 3 3 3 2 1 0 1 2 2 3 4 5 5 4 2 3 3 4 5 4 3
11 12 11 11 10 8 7 8 9 3 5 7 9 7 9 9 8 8 8 8 8 7 8 8 7 7 6 6 6 6 6 6 5 4 4 5 4 4 5 4 4 3 2 1 1 2 1 1 2 3 4 4 4 4 3 2 2 2 3 3 3 4
15 16 15 12 8 7 9 12 9 7 6 6 7 7 7 8 8 8 7 8 9 9 9 9 8 7 7 7 7 7 6 5 6 6 4 3 2 2 2 1 1 2 2 1 1 2 1 1 2 3 3 4 4 5 3 2 2 2 3 3 2 2
16 15 12 8 9 9 11 9 9 9 8 8 8 8 8 8 9 10 10 10 9 9 9 9 9 8 8 8 8 7 7 6 6 4 4 4 4 4 4 4 3 2 2 2 2 2 2 2 3 3 3 3 4 4 2 1 1 1 2 3 2 2
9 7 8 8 7 10 9 8 10 10 9 8 7 9 8 9 11 10 10 11 10 10 10 9 10 10 10 9 9 9 7 6 5 6 5 6 6 5 5 3 2 2 2 2 2 3 3 2 3 3 3 3 4 5 4 3 2 1 2 3 2 1
13 12 8 6 9 11 7 7 9 10 11 9 9 9 9 11 11 11 13 12 10 10 10 10 10 10 10 10 9 8 8 8 7 5 5 4 5 5 4 3 3 2 2 2 2 3 3 2 3 3 4 5 5 5 4 4 4 4 4 3 3 3
5 5 8 11 14 13 10 9 10 11 12 10 8 9 11 14 14 11 8 8 10 10 10 9 10 9 10 10 8 7 7 6 6 6 7 5 4 4 4 3 2 3 2 1 1 2 3 2 3 3 4 4 5 6 5 4 5 5 5 4 4 3
11 14 16 16 15 8 9 9 10 11 10 9 10 12 16 12 7 9 10 9 9 10 10 9 10 11 9 8 8 7 6 6 7 6 6 6 4 4 4 3 3 3 2 1 2 2 2 2 3 3 4 4 4 6 6 4 5 4 4 4 5 4
7 8 7 6 5 6 8 10 11 12 9 9 13 18 11 8 9 9 10 11 11 10 10 9 8 8 7 7 7 7 6 5 5 6 6 4 5 6 5 4 3 3 2 1 2 2 2 2 3 2 3 4 4 5 6 4 4 4 4 3 4 3
10 11 12 8 6 7 9 10 12 10 11 13 19 10 8 9 10 11 11 11 11 10 9 9 9 8 7 7 7 8 7 6 6 5 5 6 5 6 5 5 4 4 3 2 1 1 1 1 1 2 2 3 3 4 5 6 4 5 3 4 4 4
8 9 8 5 6 8 10 13 13 12 13 18 6 8 8 9 9 10 10 10 10 9 9 8 8 7 6 8 7 7 7 7 6 5 5 5 5 5 5 4 4 4 3 2 1 1 1 1 1 2 2 3 3 5 5 6 6 5 4 3 4 3
11 11 9 7 8 8 9 10 14 14 16 10 9 10 12 11 11 11 11 10 10 10 9 8 8 8 7 8 8 8 8 8 7 7 5 6 5 6 5 5 4 4 4 3 2 1 1 1 2 2 2 4 4 5 5 6 6 7 5 3 3 2
8 8 11 9 8 9 9 10 9 13 15 7 9 10 11 12 13 12 11 10 10 10 10 10 8 8 8 8 7 7 6 8 8 7 6 6 6 6 6 6 5 4 4 3 1 0 2 2 2 3 2 3 3 4 5 5 5 5 5 4 4 5
8 9 10 11 7 7 7 9 9 9 4 10 9 10 11 12 12 11 10 11 10 9 10 11 9 8 8 8 6 6 7 7 7 7 7 6 6 6 6 6 6 5 4 4 3 2 1 2 2 3 3 3 3 3 3 3 3 5 4 3 3 2
9 10 9 10 8 8 8 8 8 5 6 7 9 10 11 11 12 12 11 11 10 10 10 10 10 10 8 8 8 8 8 7 7 7 7 8 7 7 7 6 6 6 7 7 5 2 0 2 2 3 3 4 2 3 2 1 2 3 2 3 4 1
10 11 10 11 7 7 7 7 5 5 8 9 9 11 12 11 10 9 10 10 9 9 8 8 9 9 8 8 7 5 4 7 6 6 4 2 2 4 5 5 6 6 5 6 5 4 1 1 1 3 3 3 3 2 2 2 4 3 3 5 4 0
8 8 9 6 5 7 8 7 6 6 7 9 10 11 13 12 10 10 10 9 9 8 9 8 8 7 8 7 7 7 4 5 5 5 6 3 2 4 6 7 5 6 5 4 3 3 3 2 1 4 4 4 3 5 6 6 6 6 5 5 5 3
5 5 6 6 4 5 5 5 5 6 7 8 9 11 12 13 11 9 9 9 9 9 9 9 8 8 7 7 7 6 7 6 4 4 4 6 5 5 4 4 6 7 7 6 2 1 3 3 2 2 2 3 4 4 5 6 7 7 7 6 1 1
8 10 9 5 5 5 5 5 5 6 6 6 7 8 11 12 12 12 11 9 8 10 9 8 8 9 8 7 6 7 7 7 8 6 6 8 8 8 8 8 8 7 6 6 5 4 1 1 1 0 1 1 2 3 4 4 5 5 5 6 5 1
6 4 4 5 5 5 4 6 5 4 5 6 7 8 10 10 10 11 10 9 9 9 10 9 9 8 8 9 9 8 8 9 9 10 8 5 7 10 10 10 10 9 9 8 7 6 4 2 2 3 3 2 3 3 3 3 4 4 4 3 0 2
4 3 4 4 4 4 4 4 3 2 2 3 5 7 9 9 9 10 10 10 11 11 10 9 9 9 8 7 7 8 8 8 8 8 10 11 8 6 7 9 10 10 9 10 10 8 7 7 6 6 5 5 4 4 4 3 2 3 4 3 1 1
6 5 5 6 6 5 5 5 3 1 2 4 5 6 6 6 7 7 8 11 9 8 9 8 8 8 8 8 8 9 8 8 7 8 9 10 10 9 8 5 4 7 10 7 7 11 11 9 9 8 8 8 7 6 4 7 5 3 4 5 3 1
6 6 6 6 6 6 7 6 2 1 3 5 7 8 8 8 8 8 8 7 8 7 6 7 7 7 8 8 8 7 7 7 7 8 7 7 7 8 8 5 3 2 3 10 11 13 12 11 10 10 11 11 11 11 7 3 5 3 3 2 4 3
Wind_Direction
231 223 222 221 219 226 221 201 177 181 194 198 199 209 211 196 179 175 188 194 205 206 210 209 210 212 212 211 210 202 209 216 215 218 222 225 217 214 218 217 216 215 215 214 219 218 219 220 221 220 224 225 233 234 234 227 226 231 232 228 216 221
230 227 229 229 221 201 189 180 175 191 194 187 202 204 186 179 187 189 201 209 206 211 203 211 207 208 207 202 195 204 208 214 215 219 222 220 210 212 211 211 216 216 218 219 220 220 220 219 219 215 221 224 236 245 247 227 208 215 234 247 251 236
238 244 284 154 99 117 143 166 182 193 183 196 196 192 190 194 209 200 220 193 204 193 202 205 196 183 159 166 181 192 203 208 202 209 216 200 216 204 204 207 213 214 215 216 217 216 218 219 220 213 219 229 229 222 222 236 236 234 232 218 220 209
266 340 64 70 131 162 178 185 162 191 201 207 168 158 185 193 209 201 206 197 187 188 174 157 141 143 141 138 137 139 145 148 168 174 157 185 220 192 200 204 210 212 214 217 221 220 223 224 219 219 220 219 225 234 233 238 235 237 237 243 268 260
228 204 185 189 193 204 200 209 198 212 215 197 196 181 216 195 198 189 177 166 154 159 158 141 144 137 139 134 140 139 152 157 170 177 168 202 238 239 204 201 201 207 205 218 236 241 238 239 254 275 239 232 228 240 243 226 224 228 234 224 222 219
241 175 203 212 221 211 219 218 219 219 217 213 205 206 213 202 165 153 144 148 151 154 138 142 141 125 140 148 158 142 141 132 115 171 173 191 206 203 264 206 195 188 193 209 233 242 242 254 252 254 237 236 238 245 247 240 227 228 230 226 227 219
216 219 218 222 222 229 227 224 220 213 218 210 211 216 206 193 174 156 163 153 151 152 151 141 132 132 140 146 165 159 159 133 118 97 122 137 151 189 159 18 33 91 325 235 248 261 266 263 262 263 271 273 269 265 269 265 257 252 247 239 231 214
234 227 225 226 222 217 217 219 220 218 217 217 205 195 189 212 169 158 141 157 158 167 169 171 141 141 146 156 161 160 148 113 89 88 63 94 126 48 40 72 62 119 259 247 242 237 236 234 238 243 258 273 272 258 258 256 248 242 239 243 242 228
234 223 225 220 221 218 217 212 214 216 214 222 216 201 190 189 170 159 167 166 171 163 180 175 164 154 154 152 151 144 114 64 77 63 44 63 90 93 130 164 145 162 181 214 205 235 247 278 272 252 258 259 254 243 243 245 238 237 234 231 221 215
238 229 226 225 228 224 227 217 214 209 204 212 206 199 195 188 175 171 170 158 174 189 184 177 161 148 137 128 99 67 50 289 259 161 140 140 130 84 41 328 320 307 163 256 278 319 346 304 275 250 248 246 246 240 244 241 239 240 242 235 229 219
227 227 227 227 223 225 222 219 222 222 225 220 204 195 201 185 178 185 185 187 192 193 176 162 146 119 134 148 150 172 196 171 147 144 153 160 157 163 185 186 190 194 221 303 70 316 206 209 245 290 296 286 279 236 243 239 233 231 235 237 227 218
219 225 224 225 220 221 215 215 216 213 209 210 200 202 202 178 188 187 194 198 195 174 164 157 149 174 184 179 178 178 167 153 150 126 109 95 102 109 118 118 69 51 17 346 342 334 341 352 6 348 321 266 245 229 233 233 228 221 224 224 226 225
220 229 225 224 218 215 210 212 212 207 213 209 201 204 196 183 185 194 195 199 181 168 164 166 174 170 169 174 166 160 157 157 149 136 130 121 107 106 96 113 124 127 128 159 205 270 27 240 211 246 241 232 228 218 210 213 220 206 211 218 222 229
217 219 220 218 217 211 208 208 204 193 213 203 204 198 179 187 190 195 196 188 172 173 174 168 170 168 168 160 171 167 160 148 148 153 152 145 140 143 128 114 148 156 151 146 128 189 220 244 247 247 237 225 220 207 207 202 206 200 210 215 218 226
211 214 217 216 213 208 212 198 183 205 208 201 202 160 180 191 191 191 191 182 176 179 169 165 168 168 165 178 168 161 153 157 159 159 158 172 171 142 137 164 148 159 176 164 181 222 234 225 256 252 241 239 230 216 199 196 193 191 207 211 216 214
217 221 219 215 212 207 200 182 193 208 200 184 155 176 185 186 190 188 189 179 182 175 165 167 168 167 174 167 161 159 162 171 183 179 173 147 147 156 157 164 173 189 187 184 182 210 218 228 283 268 266 263 251 232 199 199 190 202 205 209 207 201
211 220 225 231 223 210 171 196 214 165 144 166 175 182 179 188 181 186 184 184 181 171 169 170 167 170 167 167 164 168 176 183 171 164 173 168 170 170 180 181 188 204 178 163 170 178 200 211 242 230 245 255 250 232 180 160 179 203 224 231 215 208
210 211 216 218 205 197 191 198 182 171 181 161 176 176 182 178 182 187 181 188 185 178 176 170 168 167 165 168 169 174 182 179 177 172 173 165 177 186 148 197 171 177 175 171 163 174 206 266 241 225 232 238 226 199 155 167 192 227 242 253 262 265
210 212 207 202 195 194 200 192 171 178 159 171 180 174 175 175 189 193 189 192 186 179 175 171 166 168 169 171 173 182 182 178 176 179 164 163 175 174 189 189 187 166 143 157 194 194 208 230 242 226 221 214 216 157 137 170 198 245 275 281 284 287
219 222 205 198 195 209 205 181 174 168 172 179 170 169 179 183 202 196 189 192 185 178 173 171 166 171 174 174 181 183 184 180 173 175 174 171 173 188 194 180 167 151 143 162 203 218 205 230 243 228 216 198 192 159 166 163 161 231 256 270 283 276
206 202 191 185 206 221 202 177 167 166 185 184 179 177 180 201 205 192 193 189 177 173 173 171 170 175 176 179 183 180 178 179 177 170 170 178 178 178 164 163 169 160 138 165 210 229 226 241 248 230 217 201 199 170 156 164 169 200 228 225 242 215
176 166 182 198 215 212 182 170 170 184 188 191 169 179 200 210 207 191 175 167 169 171 172 174 172 176 177 180 179 176 177 168 160 168 172 178 173 160 157 164 166 156 159 156 199 226 236 248 268 262 230 211 210 180 163 166 175 210 225 221 216 229
190 203 201 204 210 184 165 166 174 190 196 175 175 200 214 206 167 161 168 163 167 173 176 175 177 177 180 179 174 169 162 165 165 163 168 166 158 141 141 155 154 141 143 160 208 213 249 247 266 275 248 242 227 205 174 190 204 211 205 212 218 217
215 231 249 250 209 172 170 172 182 197 178 178 198 215 201 144 160 160 162 170 174 175 175 175 171 171 172 164 157 160 162 164 157 160 160 159 152 147 143 150 144 127 143 183 211 227 247 259 251 288 278 266 249 237 209 202 226 209 205 218 226 228
212 216 221 214 179 168 178 177 190 191 188 191 214 198 140 153 157 167 167 168 170 174 173 170 168 168 164 158 159 156 156 154 155 155 154 155 148 142 144 152 146 139 147 164 233 259 277 285 296 269 279 290 280 262 249 233 232 224 201 206 235 233
219 225 230 199 184 183 182 181 194 196 192 213 189 128 143 148 165 160 164 168 168 165 165 163 161 157 152 155 157 153 152 156 155 152 158 156 149 145 149 151 145 140 147 165 207 314 307 318 318 320 290 283 286 281 273 269 259 225 212 206 234 249
214 220 224 211 198 197 192 195 194 198 206 208 140 162 158 162 160 163 166 168 164 163 157 152 157 157 155 157 156 157 159 155 159 157 164 156 155 157 157 163 158 159 162 157 172 197 314 328 1 318 316 297 284 282 284 282 277 271 227 216 254 235
216 207 217 218 203 197 198 204 202 200 214 159 165 162 164 157 160 163 167 162 161 158 154 151 151 153 154 155 159 161 164 158 162 161 162 163 163 165 161 163 161 156 157 162 156 240 268 306 336 320 317 315 306 299 295 297 296 295 276 241 230 234
214 219 218 223 208 201 202 204 211 213 154 166 163 159 157 161 159 160 158 161 156 154 157 158 161 155 154 155 155 159 162 161 162 164 164 167 166 167 164 160 161 159 155 174 197 222 284 319 329 320 315 308 331 301 317 336 325 332 333 317 310 305
224 224 216 221 202 196 198 202 205 184 160 156 157 155 154 158 162 161 165 161 163 162 164 161 155 157 160 164 165 166 166 169 167 168 171 174 174 166 168 162 164 166 171 188 193 180 301 313 329 305 286 292 285 288 319 338 312 298 282 282 286 308
216 218 208 216 187 185 188 194 181 166 163 161 157 157 155 157 156 156 158 158 156 161 159 159 162 167 165 163 163 161 157 161 164 152 140 124 135 153 154 161 170 184 186 161 156 149 179 327 303 264 216 230 228 219 256 282 269 255 257 242 246 125
217 214 214 208 175 183 181 178 172 168 164 159 162 160 157 154 151 154 162 163 163 157 156 156 162 163 164 163 160 149 105 48 93 124 135 190 252 148 155 152 178 190 161 150 199 162 153 179 214 260 320 303 267 246 229 232 235 223 228 245 254 176
217 209 211 195 171 176 173 168 171 167 168 168 166 164 155 152 153 158 161 163 169 165 158 158 160 166 165 164 155 149 138 115 56 60 133 147 154 154 144 121 117 126 137 135 125 208 167 204 248 296 316 326 319 297 270 254 252 247 246 243 125 67
205 205 203 168 171 173 171 166 173 173 166 165 162 155 153 158 159 163 166 165 160 157 161 164 166 163 164 157 150 144 141 137 127 92 66 95 115 114 114 116 118 123 125 121 136 123 27 88 187 269 326 332 324 323 313 299 287 280 266 265 186 159
202 181 150 154 160 157 162 164 176 170 166 161 156 150 154 160 160 158 158 161 157 159 161 163 166 168 163 160 157 155 151 152 150 140 123 85 92 103 102 100 99 102 104 101 101 118 137 113 65 59 47 29 12 343 326 308 299 301 297 310 29 171
136 129 128 135 147 151 152 160 168 172 167 153 148 151 155 158 161 159 161 164 163 160 165 167 167 163 162 158 152 152 154 162 160 149 142 134 127 98 73 61 65 71 72 74 79 80 76 71 71 56 50 39 23 14 343 332 332 328 332 354 214 223
132 133 137 141 146 149 158 162 175 175 160 155 146 141 140 142 140 137 139 143 150 161 160 160 157 156 153 153 155 158 161 162 163 153 150 151 146 145 134 124 60 53 67 72 63 56 57 60 60 59 53 43 34 10 16 52 40 25 347 10 28 39
136 139 142 148 158 158 161 172 192 188 178 161 150 145 145 144 142 141 143 147 146 143 146 147 148 148 151 154 155 151 148 147 146 142 139 129 124 126 127 113 96 96 42 61 49 44 44 48 51 57 54 47 40 37 41 50 19 31 0 5 335 350